CAPE
0 0 7 64 116 83 46 29 0 0 0 24 0 0 0 11 29 67 54 29 32 443 519 309 475 484 438 395 438 590 548 256 82 72 115 39 46 42 40 23 82 61 15 19 47 43 49 43 44
0 3 120 121 118 84 90 34 0 0 0 0 0 0 0 130 189 168 182 44 23 448 445 372 371 435 429 475 580 588 646 539 346 197 156 55 39 16 22 32 76 23 6 31 20 28 20 15 18
0 19 182 155 112 125 97 4 0 5 0 0 0 0 0 191 184 99 84 83 73 487 499 408 327 441 445 541 656 577 532 536 528 304 166 47 35 61 84 49 71 36 14 16 19 21 3 1 0
3 39 40 70 100 149 87 10 45 9 0 0 0 0 94 12 77 130 75 39 73 657 526 400 395 464 384 437 527 569 509 538 509 407 304 143 63 99 171 141 65 40 22 7 18 8 1 0 0
12 36 26 44 66 80 31 28 2 0 0 0 0 0 30 26 1 88 128 69 189 649 541 496 375 417 336 356 390 373 425 366 376 445 349 229 187 84 210 190 59 40 30 26 19 29 41 28 0
0 0 7 14 7 35 10 4 35 3 0 0 0 0 0 0 0 40 204 155 188 654 573 732 360 280 244 232 250 245 227 260 227 168 326 325 164 91 234 91 61 50 28 52 32 36 153 68 34
0 0 0 0 0 14 10 1 0 0 0 0 0 0 0 0 0 0 81 243 250 532 499 491 361 279 201 174 82 127 128 103 88 80 162 133 65 74 139 65 55 67 59 70 57 62 72 63 23
0 0 0 0 0 0 0 0 0 0 0 0 0 0 0 0 12 31 0 91 272 474 467 422 651 232 432 192 29 0 11 27 37 30 44 39 25 45 49 31 55 80 98 89 82 79 76 46 31
0 0 0 0 0 0 0 0 0 0 0 0 0 0 0 0 0 1 0 0 133 221 387 354 346 233 337 282 97 2 0 8 20 15 22 28 36 42 25 10 46 90 93 121 90 68 52 26 3
0 0 0 0 0 0 0 0 0 0 0 0 0 0 0 0 0 0 0 0 0 47 260 343 346 299 155 216 127 9 0 0 12 21 23 34 42 41 7 3 21 52 64 74 74 53 1 0 0
0 0 0 0 0 0 0 0 0 0 0 0 0 0 0 0 0 0 0 0 0 0 0 350 374 301 279 150 170 28 0 0 0 16 22 25 34 27 6 3 2 37 39 34 22 0 0 2 13
0 0 0 0 0 0 0 0 0 0 0 0 0 0 0 0 0 0 0 0 0 0 0 0 268 305 233 268 291 166 30 2 0 0 16 28 27 23 13 3 8 31 29 0 0 2 0 13 28
0 0 0 0 0 0 0 0 0 0 0 0 0 0 0 0 0 0 0 0 0 0 0 0 0 305 314 247 247 125 94 55 2 2 11 23 19 18 9 17 11 27 26 2 0 0 13 30 35
0 0 0 0 0 0 0 0 0 0 0 0 0 0 0 0 0 0 0 0 0 0 0 0 0 0 58 281 236 58 121 96 59 8 4 11 4 7 4 21 24 31 20 2 2 0 17 20 14
0 0 0 0 0 0 0 0 0 0 0 0 0 0 0 0 0 0 0 0 0 0 0 0 0 0 0 4 161 185 16 119 89 21 20 6 0 8 19 14 31 32 14 17 6 4 5 4 4
0 0 0 0 0 0 0 0 0 0 0 0 0 0 0 0 0 0 0 0 0 0 0 0 0 0 0 0 0 33 167 20 82 37 29 16 3 2 20 9 36 18 24 18 4 2 4 3 1
0 0 0 0 0 0 0 0 0 0 0 0 0 0 0 0 0 0 0 0 0 0 0 0 0 0 0 0 0 1 81 270 73 74 59 26 37 11 11 10 35 19 35 18 6 1 0 1 1
0 0 0 0 0 0 0 0 0 0 0 0 0 0 0 0 0 0 0 0 0 0 0 0 0 0 0 0 0 0 0 93 193 27 61 69 96 98 1 12 31 23 35 19 10 2 0 1 0
0 0 0 0 0 0 0 0 0 0 0 0 0 0 0 0 0 0 0 0 0 0 0 0 0 0 0 0 0 0 0 2 25 103 73 13 81 75 75 1 13 29 26 19 18 11 3 5 0
0 0 0 0 0 0 0 0 0 0 0 0 0 0 0 0 0 0 0 0 0 0 0 0 0 0 0 0 0 0 0 0 51 8 86 57 50 65 30 16 30 25 8 32 20 10 5 12 1
0 0 0 0 0 0 0 0 0 0 0 0 0 0 0 0 0 0 0 0 0 0 0 0 0 0 0 0 0 0 0 0 22 39 98 69 38 51 16 18 37 63 37 13 16 20 3 10 3
0 0 0 0 0 0 0 0 0 0 0 0 0 0 0 0 0 0 0 0 0 0 0 0 0 0 0 0 0 0 0 0 0 9 41 45 5 42 13 41 27 27 0 46 2 5 1 23 11
0 0 0 0 0 0 0 0 0 0 0 0 0 0 0 0 0 0 0 0 0 0 0 0 0 0 0 0 0 0 0 0 0 0 6 5 26 30 33 39 35 18 34 60 31 2 7 11 11
0 0 0 0 0 0 0 0 0 0 0 0 0 0 0 0 0 0 0 0 0 0 0 0 0 0 0 0 0 0 0 0 0 0 26 7 9 5 58 38 24 21 0 37 67 47 45 14 0
0 0 0 0 0 0 0 0 0 0 0 0 0 0 0 0 0 0 0 0 0 0 0 0 0 0 0 0 0 0 0 0 0 0 0 2 5 82 50 31 17 9 3 24 53 72 19 5 0
0 0 0 0 0 0 0 0 0 0 0 0 0 0 0 0 0 0 0 0 0 0 0 0 0 0 0 0 0 0 0 0 0 0 0 0 21 29 7 51 42 36 5 45 31 40 12 20 13
0 0 0 0 0 0 0 0 0 0 0 0 0 0 0 0 0 0 0 0 0 0 0 0 0 0 0 0 0 0 0 0 0 0 0 33 66 6 18 64 2 51 31 52 22 25 25 25 48
0 0 0 0 0 0 0 0 0 0 0 0 0 0 0 0 0 0 0 0 0 0 0 0 0 0 0 0 0 0 0 0 0 0 0 31 78 27 27 58 41 40 23 56 39 28 25 0 27
0 0 0 0 0 0 0 0 0 0 0 0 0 0 0 0 0 0 0 0 0 0 0 0 0 0 0 0 0 0 0 0 0 0 0 7 43 56 20 54 62 12 63 11 39 4 12 40 22
0 0 0 0 0 0 0 0 0 0 0 0 0 0 0 0 0 0 0 0 0 0 0 0 0 0 0 0 0 0 0 0 0 0 6 33 37 8 0 0 6 16 33 35 38 0 0 46 35
CIN
-0 -0 -84 -75 -18 -16 -25 -17 -0 -0 -0 -10 -0 -0 -0 -54 -16 -24 -158 -154 -153 -144 -113 -130 -52 -48 -47 -52 -61 -10 -10 -0 -20 -44 -57 -0 -0 -0 -0 -0 -78 -124 -0 -0 -2 -1 -3 -3 -0
-0 -10 -65 -35 -15 -8 -21 -4 -0 -0 -0 -0 -0 -0 -0 -18 -33 -58 -94 -138 -156 -120 -140 -103 -81 -57 -42 -29 -16 -22 -1 -28 -0 -3 -8 -0 -0 -0 -0 -0 -79 -0 -0 -1 -0 -0 -0 -0 -0
-1 -71 -41 -23 -4 -25 -4 -24 -0 -21 -0 -0 -0 -0 -0 -70 -22 -98 -152 -147 -125 -93 -95 -89 -93 -31 -33 -16 -3 -35 -44 -35 -41 -0 -0 -0 -0 -0 -28 -0 -37 -0 -0 -0 -0 -0 -0 -0 -0
-4 -26 -52 -56 -31 -9 -6 -6 -3 -4 -0 -0 -0 -0 -73 -44 -80 -112 -145 -153 -106 -52 -70 -102 -69 -36 -19 -2 -22 -36 -58 -61 -42 -0 -0 -0 -0 -22 -0 -1 -0 -0 -0 -0 -0 -0 -0 -0 -0
-81 -57 -20 -55 -37 -5 -18 -15 -3 -0 -0 -0 -0 -0 -44 -83 -21 -120 -135 -131 -61 -43 -72 -51 -53 -30 -30 -7 -0 -0 -0 -0 -1 -0 -0 -0 -0 -0 -2 -4 -0 -0 -0 -0 -0 -0 -0 -2 -0
-0 -1 -22 -4 -12 -23 -4 -28 -12 -3 -0 -0 -0 -0 -0 -0 -0 -111 -98 -95 -40 -33 -38 -16 -39 -38 -45 -35 -13 -3 -1 -0 -1 -10 -0 -0 -1 -0 -3 -0 -2 -0 -0 -0 -0 -5 -18 -0 -2
-0 -0 -0 -0 -0 -0 -0 -0 -0 -0 -0 -0 -0 -0 -0 -0 -0 -0 -137 -62 -24 -32 -30 -18 -28 -33 -34 -38 -73 -48 -22 -29 -25 -41 -12 -18 -7 -4 -2 -3 -6 -0 -0 -0 -2 -4 -4 -3 -10
-0 -0 -0 -0 -0 -0 -0 -0 -0 -0 -0 -0 -0 -0 -0 -0 -105 -69 -0 -107 -7 -13 -14 -21 -2 -41 -3 -39 -86 -0 -9 -104 -105 -22 -32 -19 -26 -27 -13 -29 -12 -1 -2 -2 -4 -2 -2 -9 -10
-0 -0 -0 -0 -0 -0 -0 -0 -0 -0 -0 -0 -0 -0 -0 -0 -0 -69 -0 -0 -57 -23 -5 -14 -18 -36 -12 -19 -63 -2 -0 -14 -11 -21 -17 -15 -20 -24 -13 -19 -21 -4 -6 -4 -3 -3 -3 -22 -7
-0 -0 -0 -0 -0 -0 -0 -0 -0 -0 -0 -0 -0 -0 -0 -0 -0 -0 -0 -0 -0 -17 -12 -18 -16 -14 -52 -29 -54 -57 -0 -0 -11 -20 -26 -20 -20 -22 -0 -1 -32 -10 -10 -15 -2 -4 -16 -0 -0
-0 -0 -0 -0 -0 -0 -0 -0 -0 -0 -0 -0 -0 -0 -0 -0 -0 -0 -0 -0 -0 -0 -0 -15 -22 -16 -10 -46 -32 -77 -0 -0 -0 -10 -17 -25 -22 -21 -12 -5 -7 -8 -6 -11 -13 -0 -0 -4 -15
-0 -0 -0 -0 -0 -0 -0 -0 -0 -0 -0 -0 -0 -0 -0 -0 -0 -0 -0 -0 -0 -0 -0 -0 -12 -14 -1 -0 -3 -45 -73 -84 -3 -0 -13 -20 -27 -15 -0 -15 -33 -9 -0 -0 -0 -1 -0 -2 -5
-0 -0 -0 -0 -0 -0 -0 -0 -0 -0 -0 -0 -0 -0 -0 -0 -0 -0 -0 -0 -0 -0 -0 -0 -0 -16 -12 -0 -0 -16 -75 -75 -35 -18 -9 -12 -27 -3 -0 -16 -17 -3 -0 -4 -0 -0 -0 -4 -5
-0 -0 -0 -0 -0 -0 -0 -0 -0 -0 -0 -0 -0 -0 -0 -0 -0 -0 -0 -0 -0 -0 -0 -0 -0 -0 -12 -3 -2 -24 -41 -56 -44 -36 -20 -13 -19 -3 -0 -16 -10 -0 -0 -11 -8 -0 -8 -1 -5
-0 -0 -0 -0 -0 -0 -0 -0 -0 -0 -0 -0 -0 -0 -0 -0 -0 -0 -0 -0 -0 -0 -0 -0 -0 -0 -0 -1 -4 -2 -5 -14 -4 -29 -6 -18 -0 -17 -13 -23 -3 -2 -0 -0 -0 -0 -0 -0 -0
-0 -0 -0 -0 -0 -0 -0 -0 -0 -0 -0 -0 -0 -0 -0 -0 -0 -0 -0 -0 -0 -0 -0 -0 -0 -0 -0 -0 -0 -0 -1 -3 -6 -38 -23 -4 -10 -12 -13 -27 -11 -3 -0 -0 -0 -0 -0 -0 -0
-0 -0 -0 -0 -0 -0 -0 -0 -0 -0 -0 -0 -0 -0 -0 -0 -0 -0 -0 -0 -0 -0 -0 -0 -0 -0 -0 -0 -0 -1 -0 -0 -0 -0 -11 -20 -8 -5 -14 -8 -11 -0 -0 -0 -0 -0 -0 -0 -0
-0 -0 -0 -0 -0 -0 -0 -0 -0 -0 -0 -0 -0 -0 -0 -0 -0 -0 -0 -0 -0 -0 -0 -0 -0 -0 -0 -0 -0 -0 -0 -1 -1 -0 -6 -3 -1 -0 -19 -10 -8 -0 -0 -0 -0 -0 -0 -0 -0
-0 -0 -0 -0 -0 -0 -0 -0 -0 -0 -0 -0 -0 -0 -0 -0 -0 -0 -0 -0 -0 -0 -0 -0 -0 -0 -0 -0 -0 -0 -0 -0 -9 -0 -0 -12 -0 -0 -0 -2 -4 -0 -0 -1 -2 -0 -0 -0 -0
-0 -0 -0 -0 -0 -0 -0 -0 -0 -0 -0 -0 -0 -0 -0 -0 -0 -0 -0 -0 -0 -0 -0 -0 -0 -0 -0 -0 -0 -0 -0 -0 -0 -4 -0 -0 -0 -0 -0 -0 -1 -1 -1 -3 -8 -1 -0 -0 -0
-0 -0 -0 -0 -0 -0 -0 -0 -0 -0 -0 -0 -0 -0 -0 -0 -0 -0 -0 -0 -0 -0 -0 -0 -0 -0 -0 -0 -0 -0 -0 -0 -8 -5 -0 -1 -0 -2 -4 -2 -2 -1 -2 -5 -9 -0 -0 -0 -0
-0 -0 -0 -0 -0 -0 -0 -0 -0 -0 -0 -0 -0 -0 -0 -0 -0 -0 -0 -0 -0 -0 -0 -0 -0 -0 -0 -0 -0 -0 -0 -0 -0 -0 -2 -0 -0 -0 -10 -2 -1 -0 -0 -0 -1 -0 -0 -0 -4
-0 -0 -0 -0 -0 -0 -0 -0 -0 -0 -0 -0 -0 -0 -0 -0 -0 -0 -0 -0 -0 -0 -0 -0 -0 -0 -0 -0 -0 -0 -0 -0 -0 -0 -1 -0 -0 -40 -0 -0 -0 -40 -2 -1 -0 -0 -0 -0 -0
-0 -0 -0 -0 -0 -0 -0 -0 -0 -0 -0 -0 -0 -0 -0 -0 -0 -0 -0 -0 -0 -0 -0 -0 -0 -0 -0 -0 -0 -0 -0 -0 -0 -0 -1 -7 -1 -0 -0 -1 -3 -2 -0 -6 -0 -0 -0 -2 -0
-0 -0 -0 -0 -0 -0 -0 -0 -0 -0 -0 -0 -0 -0 -0 -0 -0 -0 -0 -0 -0 -0 -0 -0 -0 -0 -0 -0 -0 -0 -0 -0 -0 -0 -0 -0 -0 -0 -0 -0 -0 -2 -0 -1 -0 -0 -1 -0 -0
-0 -0 -0 -0 -0 -0 -0 -0 -0 -0 -0 -0 -0 -0 -0 -0 -0 -0 -0 -0 -0 -0 -0 -0 -0 -0 -0 -0 -0 -0 -0 -0 -0 -0 -0 -0 -4 -45 -0 -0 -0 -2 -0 -2 -3 -0 -0 -0 -0
-0 -0 -0 -0 -0 -0 -0 -0 -0 -0 -0 -0 -0 -0 -0 -0 -0 -0 -0 -0 -0 -0 -0 -0 -0 -0 -0 -0 -0 -0 -0 -0 -0 -0 -0 -0 -12 -1 -18 -6 -4 -0 -0 -0 -1 -0 -0 -0 -0
-0 -0 -0 -0 -0 -0 -0 -0 -0 -0 -0 -0 -0 -0 -0 -0 -0 -0 -0 -0 -0 -0 -0 -0 -0 -0 -0 -0 -0 -0 -0 -0 -0 -0 -0 -0 -2 -0 -0 -0 -0 -0 -0 -0 -0 -0 -0 -0 -0
-0 -0 -0 -0 -0 -0 -0 -0 -0 -0 -0 -0 -0 -0 -0 -0 -0 -0 -0 -0 -0 -0 -0 -0 -0 -0 -0 -0 -0 -0 -0 -0 -0 -0 -0 -0 -2 -4 -1 -0 -0 -0 -0 -0 -0 -0 -0 -0 -0
-0 -0 -0 -0 -0 -0 -0 -0 -0 -0 -0 -0 -0 -0 -0 -0 -0 -0 -0 -0 -0 -0 -0 -0 -0 -0 -0 -0 -0 -0 -0 -0 -0 -0 -0 -0 -0 -2 -0 -0 -0 -0 -0 -0 -0 -0 -0 -0 -0
Wind_Speed
nan nan nan nan 35 nan nan nan nan nan nan nan nan nan nan nan nan nan nan nan nan 30 26 24 23 24 21 22 21 20 20 19 nan nan 21 nan nan nan nan nan nan nan nan nan nan nan nan nan nan
nan nan 20 25 26 nan nan nan nan nan nan nan nan nan nan 37 42 33 30 nan nan 31 30 23 24 27 24 23 24 22 21 20 19 22 21 nan nan nan nan nan nan nan nan nan nan nan nan nan nan
nan nan 16 18 11 12 nan nan nan nan nan nan nan nan nan 36 41 nan nan nan nan 33 31 28 26 28 28 24 26 24 24 24 23 23 24 nan nan nan nan nan nan nan nan nan nan nan nan nan nan
nan nan nan nan 10 19 nan nan nan nan nan nan nan nan nan nan nan 38 nan nan nan 33 31 37 29 26 32 26 27 24 24 23 26 25 25 25 nan nan 25 26 nan nan nan nan nan nan nan nan nan
nan nan nan nan nan nan nan nan nan nan nan nan nan nan nan nan nan nan 38 nan 35 34 36 36 33 30 31 29 28 23 23 25 25 28 30 29 27 nan 26 28 nan nan nan nan nan nan nan nan nan
nan nan nan nan nan nan nan nan nan nan nan nan nan nan nan nan nan nan 38 36 37 39 37 34 33 32 32 30 27 26 25 25 25 27 26 31 29 nan 29 nan nan nan nan nan nan nan 29 nan nan
nan nan nan nan nan nan nan nan nan nan nan nan nan nan nan nan nan nan nan 40 43 42 38 36 33 31 34 34 nan 29 27 27 nan nan 28 32 nan nan 31 nan nan nan nan nan nan nan nan nan nan
nan nan nan nan nan nan nan nan nan nan nan nan nan nan nan nan nan nan nan nan 45 40 40 38 33 32 33 35 nan nan nan nan nan nan nan nan nan nan nan nan nan nan nan nan nan nan nan nan nan
nan nan nan nan nan nan nan nan nan nan nan nan nan nan nan nan nan nan nan nan 42 41 40 38 36 35 33 35 nan nan nan nan nan nan nan nan nan nan nan nan nan nan nan 34 nan nan nan nan nan
nan nan nan nan nan nan nan nan nan nan nan nan nan nan nan nan nan nan nan nan nan nan 42 39 40 40 36 36 37 nan nan nan nan nan nan nan nan nan nan nan nan nan nan nan nan nan nan nan nan
nan nan nan nan nan nan nan nan nan nan nan nan nan nan nan nan nan nan nan nan nan nan nan 48 52 43 42 43 42 nan nan nan nan nan nan nan nan nan nan nan nan nan nan nan nan nan nan nan nan
nan nan nan nan nan nan nan nan nan nan nan nan nan nan nan nan nan nan nan nan nan nan nan nan 39 41 48 47 46 42 nan nan nan nan nan nan nan nan nan nan nan nan nan nan nan nan nan nan nan
nan nan nan nan nan nan nan nan nan nan nan nan nan nan nan nan nan nan nan nan nan nan nan nan nan 43 40 48 47 52 nan nan nan nan nan nan nan nan nan nan nan nan nan nan nan nan nan nan nan
nan nan nan nan nan nan nan nan nan nan nan nan nan nan nan nan nan nan nan nan nan nan nan nan nan nan nan 40 40 nan 53 nan nan nan nan nan nan nan nan nan nan nan nan nan nan nan nan nan nan
nan nan nan nan nan nan nan nan nan nan nan nan nan nan nan nan nan nan nan nan nan nan nan nan nan nan nan nan 41 43 nan 57 nan nan nan nan nan nan nan nan nan nan nan nan nan nan nan nan nan
nan nan nan nan nan nan nan nan nan nan nan nan nan nan nan nan nan nan nan nan nan nan nan nan nan nan nan nan nan nan 50 nan nan nan nan nan nan nan nan nan nan nan nan nan nan nan nan nan nan
nan nan nan nan nan nan nan nan nan nan nan nan nan nan nan nan nan nan nan nan nan nan nan nan nan nan nan nan nan nan nan 51 nan nan nan nan nan nan nan nan nan nan nan nan nan nan nan nan nan
nan nan nan nan nan nan nan nan nan nan nan nan nan nan nan nan nan nan nan nan nan nan nan nan nan nan nan nan nan nan nan nan 51 nan nan nan nan nan nan nan nan nan nan nan nan nan nan nan nan
nan nan nan nan nan nan nan nan nan nan nan nan nan nan nan nan nan nan nan nan nan nan nan nan nan nan nan nan nan nan nan nan nan 52 nan nan nan nan nan nan nan nan nan nan nan nan nan nan nan
nan nan nan nan nan nan nan nan nan nan nan nan nan nan nan nan nan nan nan nan nan nan nan nan nan nan nan nan nan nan nan nan nan nan nan nan nan nan nan nan nan nan nan nan nan nan nan nan nan
nan nan nan nan nan nan nan nan nan nan nan nan nan nan nan nan nan nan nan nan nan nan nan nan nan nan nan nan nan nan nan nan nan nan nan nan nan nan nan nan nan nan nan nan nan nan nan nan nan
nan nan nan nan nan nan nan nan nan nan nan nan nan nan nan nan nan nan nan nan nan nan nan nan nan nan nan nan nan nan nan nan nan nan nan nan nan nan nan nan nan nan nan nan nan nan nan nan nan
nan nan nan nan nan nan nan nan nan nan nan nan nan nan nan nan nan nan nan nan nan nan nan nan nan nan nan nan nan nan nan nan nan nan nan nan nan nan nan nan nan nan nan nan nan nan nan nan nan
nan nan nan nan nan nan nan nan nan nan nan nan nan nan nan nan nan nan nan nan nan nan nan nan nan nan nan nan nan nan nan nan nan nan nan nan nan nan nan nan nan nan nan nan nan nan nan nan nan
nan nan nan nan nan nan nan nan nan nan nan nan nan nan nan nan nan nan nan nan nan nan nan nan nan nan nan nan nan nan nan nan nan nan nan nan nan nan nan nan nan nan nan nan nan nan nan nan nan
nan nan nan nan nan nan nan nan nan nan nan nan nan nan nan nan nan nan nan nan nan nan nan nan nan nan nan nan nan nan nan nan nan nan nan nan nan nan nan nan nan nan nan nan nan nan nan nan nan
nan nan nan nan nan nan nan nan nan nan nan nan nan nan nan nan nan nan nan nan nan nan nan nan nan nan nan nan nan nan nan nan nan nan nan nan nan nan nan nan nan nan nan nan nan nan nan nan nan
nan nan nan nan nan nan nan nan nan nan nan nan nan nan nan nan nan nan nan nan nan nan nan nan nan nan nan nan nan nan nan nan nan nan nan nan nan nan nan nan nan nan nan nan nan nan nan nan nan
nan nan nan nan nan nan nan nan nan nan nan nan nan nan nan nan nan nan nan nan nan nan nan nan nan nan nan nan nan nan nan nan nan nan nan nan nan nan nan nan nan nan nan nan nan nan nan nan nan
nan nan nan nan nan nan nan nan nan nan nan nan nan nan nan nan nan nan nan nan nan nan nan nan nan nan nan nan nan nan nan nan nan nan nan nan nan nan nan nan nan nan nan nan nan nan nan nan nan
Wind_Direction
nan nan nan nan 247 nan nan nan nan nan nan nan nan nan nan nan nan nan nan nan nan 265 268 273 278 273 265 257 248 251 254 254 nan nan 270 nan nan nan nan nan nan nan nan nan nan nan nan nan nan
nan nan 263 244 245 nan nan nan nan nan nan nan nan nan nan 246 236 250 250 nan nan 267 270 271 269 273 266 260 253 247 252 252 247 254 263 nan nan nan nan nan nan nan nan nan nan nan nan nan nan
nan nan 241 232 235 216 nan nan nan nan nan nan nan nan nan 236 239 nan nan nan nan 260 269 267 269 272 269 258 255 252 250 247 249 251 262 nan nan nan nan nan nan nan nan nan nan nan nan nan nan
nan nan nan nan 167 165 nan nan nan nan nan nan nan nan nan nan nan 243 nan nan nan 265 269 271 272 279 272 260 256 252 250 250 254 254 258 264 nan nan 269 272 nan nan nan nan nan nan nan nan nan
nan nan nan nan nan nan nan nan nan nan nan nan nan nan nan nan nan nan 237 nan 252 264 263 270 269 274 277 271 261 254 251 248 250 257 260 259 259 nan 262 267 nan nan nan nan nan nan nan nan nan
nan nan nan nan nan nan nan nan nan nan nan nan nan nan nan nan nan nan 238 241 248 260 264 264 266 268 272 274 268 261 259 254 248 255 260 265 262 nan 264 nan nan nan nan nan nan nan 274 nan nan
nan nan nan nan nan nan nan nan nan nan nan nan nan nan nan nan nan nan nan 233 246 259 260 258 262 264 266 268 nan 263 253 255 nan nan 258 264 nan nan 264 nan nan nan nan nan nan nan nan nan nan
nan nan nan nan nan nan nan nan nan nan nan nan nan nan nan nan nan nan nan nan 234 250 255 256 259 261 259 263 nan nan nan nan nan nan nan nan nan nan nan nan nan nan nan nan nan nan nan nan nan
nan nan nan nan nan nan nan nan nan nan nan nan nan nan nan nan nan nan nan nan 246 242 245 249 253 266 268 265 nan nan nan nan nan nan nan nan nan nan nan nan nan nan nan 271 nan nan nan nan nan
nan nan nan nan nan nan nan nan nan nan nan nan nan nan nan nan nan nan nan nan nan nan 244 254 259 253 261 262 265 nan nan nan nan nan nan nan nan nan nan nan nan nan nan nan nan nan nan nan nan
nan nan nan nan nan nan nan nan nan nan nan nan nan nan nan nan nan nan nan nan nan nan nan 256 254 255 259 260 259 nan nan nan nan nan nan nan nan nan nan nan nan nan nan nan nan nan nan nan nan
nan nan nan nan nan nan nan nan nan nan nan nan nan nan nan nan nan nan nan nan nan nan nan nan 264 268 257 255 259 260 nan nan nan nan nan nan nan nan nan nan nan nan nan nan nan nan nan nan nan
nan nan nan nan nan nan nan nan nan nan nan nan nan nan nan nan nan nan nan nan nan nan nan nan nan 263 268 257 261 259 nan nan nan nan nan nan nan nan nan nan nan nan nan nan nan nan nan nan nan
nan nan nan nan nan nan nan nan nan nan nan nan nan nan nan nan nan nan nan nan nan nan nan nan nan nan nan 261 264 nan 264 nan nan nan nan nan nan nan nan nan nan nan nan nan nan nan nan nan nan
nan nan nan nan nan nan nan nan nan nan nan nan nan nan nan nan nan nan nan nan nan nan nan nan nan nan nan nan 258 254 nan 262 nan nan nan nan nan nan nan nan nan nan nan nan nan nan nan nan nan
nan nan nan nan nan nan nan nan nan nan nan nan nan nan nan nan nan nan nan nan nan nan nan nan nan nan nan nan nan nan 258 nan nan nan nan nan nan nan nan nan nan nan nan nan nan nan nan nan nan
nan nan nan nan nan nan nan nan nan nan nan nan nan nan nan nan nan nan nan nan nan nan nan nan nan nan nan nan nan nan nan 254 nan nan nan nan nan nan nan nan nan nan nan nan nan nan nan nan nan
nan nan nan nan nan nan nan nan nan nan nan nan nan nan nan nan nan nan nan nan nan nan nan nan nan nan nan nan nan nan nan nan 249 nan nan nan nan nan nan nan nan nan nan nan nan nan nan nan nan
nan nan nan nan nan nan nan nan nan nan nan nan nan nan nan nan nan nan nan nan nan nan nan nan nan nan nan nan nan nan nan nan nan 249 nan nan nan nan nan nan nan nan nan nan nan nan nan nan nan
nan nan nan nan nan nan nan nan nan nan nan nan nan nan nan nan nan nan nan nan nan nan nan nan nan nan nan nan nan nan nan nan nan nan nan nan nan nan nan nan nan nan nan nan nan nan nan nan nan
nan nan nan nan nan nan nan nan nan nan nan nan nan nan nan nan nan nan nan nan nan nan nan nan nan nan nan nan nan nan nan nan nan nan nan nan nan nan nan nan nan nan nan nan nan nan nan nan nan
nan nan nan nan nan nan nan nan nan nan nan nan nan nan nan nan nan nan nan nan nan nan nan nan nan nan nan nan nan nan nan nan nan nan nan nan nan nan nan nan nan nan nan nan nan nan nan nan nan
nan nan nan nan nan nan nan nan nan nan nan nan nan nan nan nan nan nan nan nan nan nan nan nan nan nan nan nan nan nan nan nan nan nan nan nan nan nan nan nan nan nan nan nan nan nan nan nan nan
nan nan nan nan nan nan nan nan nan nan nan nan nan nan nan nan nan nan nan nan nan nan nan nan nan nan nan nan nan nan nan nan nan nan nan nan nan nan nan nan nan nan nan nan nan nan nan nan nan
nan nan nan nan nan nan nan nan nan nan nan nan nan nan nan nan nan nan nan nan nan nan nan nan nan nan nan nan nan nan nan nan nan nan nan nan nan nan nan nan nan nan nan nan nan nan nan nan nan
nan nan nan nan nan nan nan nan nan nan nan nan nan nan nan nan nan nan nan nan nan nan nan nan nan nan nan nan nan nan nan nan nan nan nan nan nan nan nan nan nan nan nan nan nan nan nan nan nan
nan nan nan nan nan nan nan nan nan nan nan nan nan nan nan nan nan nan nan nan nan nan nan nan nan nan nan nan nan nan nan nan nan nan nan nan nan nan nan nan nan nan nan nan nan nan nan nan nan
nan nan nan nan nan nan nan nan nan nan nan nan nan nan nan nan nan nan nan nan nan nan nan nan nan nan nan nan nan nan nan nan nan nan nan nan nan nan nan nan nan nan nan nan nan nan nan nan nan
nan nan nan nan nan nan nan nan nan nan nan nan nan nan nan nan nan nan nan nan nan nan nan nan nan nan nan nan nan nan nan nan nan nan nan nan nan nan nan nan nan nan nan nan nan nan nan nan nan
nan nan nan nan nan nan nan nan nan nan nan nan nan nan nan nan nan nan nan nan nan nan nan nan nan nan nan nan nan nan nan nan nan nan nan nan nan nan nan nan nan nan nan nan nan nan nan nan nan